Home > Weather > Minamisōma > Past weeks

Flag for Japan Past Weather in Minamisōma, Japan — Yesterday and Last 2 Weeks

Now
73 °F

Mild.


Feels Like: 70 °F
Forecast: 68 / 80 °F
Wind: 6 mph from Southeast

Location: Sendai

Current Time: Jul 27, 2016 at 5:05:31 AM

Latest Report: Jul 27, 2016 at 4:00 AM


Visibility: N/A

Pressure: 29.83 "Hg

Humidity: 93%

Dew Point: 71 °F

Location of MinamisōmaLocation

Past Weather in Minamisōma — Graph

°F

Minamisōma Temperature Yesterday

Maximum temperature yesterday: 77 °F (at 12:00 PM)
Minimum temperature yesterday: 72 °F (at 5:00 AM)
Average temperature yesterday: 75 °F

High & Low Weather Summary for the Past Weeks

 TemperatureHumidityPressure
High84 °F (Jul 18, 12:00 PM)96% (Jul 14, 4:00 AM)30.05 "Hg (Jul 14, 4:00 AM)
Low65 °F (Jul 24, 6:00 AM)55% (Jul 22, 9:00 AM)29.38 "Hg (Jul 14, 12:00 PM)
Average72 °F80%29.82 "Hg
* Reported Jul 12 3:00 AM — Jul 27 3:00 AM, Minamisōma, Weather by CustomWeather, © 2016

Note: Actual official high and low records may vary slightly from our data, if they occured in-between our weather recording intervals... More about our weather records

Advertising

Minamisōma Weather History for the Previous 24 Hours

Scroll right to see more
 ConditionsComfort  
Time TempWeatherWind HumidityBarometerVisibility
3:00 AM
Wed, Jul 27
73 °FOvercast.2 mph92%29.83 "Hg6 mi
2:00 AM73 °FMild.1 mph93%29.83 "HgN/A
1:00 AM73 °FMild.3 mph90%29.83 "HgN/A
12:00 AM74 °FMild.5 mph89%29.84 "HgN/A
11:00 PM
Tue, Jul 26
74 °FMild.8 mph91%29.84 "HgN/A
10:00 PM74 °FMild.8 mph90%29.86 "HgN/A
9:00 PM74 °FOvercast.7 mph90%29.86 "Hg9 mi
8:00 PM74 °FMild.8 mph90%29.86 "HgN/A
7:00 PM74 °FMild.14 mph88%29.85 "HgN/A
6:00 PM74 °FOvercast.12 mph85%29.84 "Hg12 mi
5:00 PM75 °FMild.13 mph83%29.84 "HgN/A
4:00 PM75 °FMild.12 mph83%29.85 "HgN/A
3:00 PM76 °FOvercast.15 mph82%29.85 "Hg16 mi
2:00 PM77 °FMild.15 mph78%29.85 "HgN/A
1:00 PM76 °FMild.15 mph79%29.86 "HgN/A
12:00 PM77 °FOvercast.14 mph78%29.88 "Hg12 mi
11:00 AM77 °FMild.12 mph80%29.88 "HgN/A
10:00 AM76 °FMild.13 mph81%29.89 "HgN/A
9:00 AM76 °FSprinkles. Overcast.9 mph81%29.90 "Hg9 mi
8:00 AM75 °FMild.6 mph83%29.90 "HgN/A
7:00 AM73 °FMild.7 mph89%29.91 "HgN/A
6:00 AM73 °FOvercast.5 mph89%29.91 "Hg9 mi
5:00 AM72 °FMild.5 mph91%29.91 "HgN/A
Weather by CustomWeather, © 2016

See weather overviewHow to use our weather pages